Location: Gardner
(38.8108°N, 94.9272°W)
Time: 22:29:02
(UTC-05:00)

Envisat - Visible Passes

Search period start: 22 October 2018 00:00
Search period end: 01 November 2018 00:00
Orbit: 764 x 766 km, 98.2° (Epoch: 22 October)

Date Brightness Start Highest point End Pass type
(mag) Time Alt. Az. Time Alt. Az. Time Alt. Az.
22 Oct 2.9 20:20:58 10° SSE 20:26:03 86° WSW 20:31:10 10° NNW visible
23 Oct 3.3 19:44:41 10° SE 19:49:25 42° ENE 19:54:12 10° N visible
23 Oct 5.3 21:24:49 10° SW 21:28:35 21° W 21:32:23 10° NW visible
24 Oct 4.3 19:09:26 10° ESE 19:13:00 20° ENE 19:16:35 10° NNE visible
24 Oct 3.9 20:46:46 10° S 20:51:38 47° W 20:56:33 10° NNW visible
25 Oct 2.8 20:09:49 10° SSE 20:14:53 75° ENE 20:19:58 10° N visible
25 Oct 5.9 21:52:54 10° WSW 21:54:25 11° W 21:55:56 10° WNW visible
26 Oct 3.6 19:33:48 10° SE 19:38:19 33° ENE 19:42:50 10° N visible
26 Oct 4.9 21:13:05 10° SSW 21:17:19 26° W 21:21:35 10° NW visible
27 Oct 4.5 18:59:00 10° E 19:01:57 16° ENE 19:04:53 10° NNE visible
27 Oct 3.4 20:35:25 10° S 20:40:26 61° W 20:45:28 10° NNW visible
28 Oct 3.0 19:58:45 10° SSE 20:03:43 59° ENE 20:08:43 10° N visible
28 Oct 5.7 21:40:18 10° SW 21:43:06 15° W 21:45:55 10° WNW visible
29 Oct 3.9 19:23:02 10° ESE 19:27:13 27° ENE 19:31:25 10° NNE visible
29 Oct 4.5 21:01:30 10° SSW 21:06:04 34° W 21:10:40 10° NNW visible
30 Oct 4.7 18:48:53 10° E 18:50:55 12° ENE 18:52:57 10° NE visible
30 Oct 3.0 20:24:10 10° S 20:29:14 78° WSW 20:34:20 10° NNW visible
31 Oct 3.2 19:47:46 10° SE 19:52:35 46° ENE 19:57:26 10° N visible
31 Oct 5.4 21:28:15 10° SW 21:31:49 19° W 21:35:23 10° NW visible
